User: anonymous   Login
Location: Petruro
(41.0333°N, 14.7833°E)
Time: 02:46:42
(UTC+00:00)
Language:

Cosmos 2292 Rocket - Orbit

View from above orbital plane
View from above orbital plane
View from above satellite
View from above satellite

Ground track
Ground track

The orbit data is extracted from the following two-line orbital elements,

1 23279U 94061B   21260.63549042  .00001320  00000-0  84297-4 0  9997
2 23279  82.9675 229.7369 0731288 147.8030 217.0059 13.94499955341417
Epoch (UTC): 17 September 2021 15:15:06
Eccentricity: 0.0731288
inclination: 82.9675°
perigee height: 380 km
apogee height: 1446 km
right ascension of ascending node: 229.7369°
argument of perigee: 147.8030°
revolutions per day: 13.94499955
mean anomaly at epoch: 217.0059°
orbit number at epoch: 34141

The dashed part of the orbit path shows where the satellite is in the earth's shadow,  

DLR